| time (UTC) | temp F | wind direction | speed knots | gust knots | rain 1hr in | rain 24hr in | rain mn in | humidity % | barometer mb |
| 20260509231530 | 70 | 23 | 5.2 | 8.7 | 0.00 | 0.00 | 0.00 | 61 | 1007.9 |
| 20260509230100 | 71 | 38 | 5.2 | 9.6 | 0.00 | 0.00 | 0.00 | 61 | 1007.9 |
| 20260509224604 | 71 | 355 | 5.2 | 11.3 | 0.00 | 0.00 | 0.00 | 60 | 1007.8 |
| 20260509223106 | 71 | 65 | 4.3 | 8.7 | 0.00 | 0.00 | 0.00 | 60 | 1007.7 |
| 20260509221605 | 71 | 10 | 7.0 | 11.3 | 0.00 | 0.00 | 0.00 | 61 | 1007.7 |
| 20260509220055 | 71 | 17 | 7.0 | 10.4 | 0.00 | 0.00 | 0.00 | 59 | 1007.8 |
| 20260509214558 | 71 | 26 | 2.6 | 6.1 | 0.00 | 0.00 | 0.00 | 62 | 1007.8 |
| 20260509213051 | 72 | 322 | 6.1 | 12.2 | 0.00 | 0.00 | 0.00 | 60 | 1007.9 |
| 20260509211552 | 71 | 14 | 6.1 | 11.3 | 0.00 | 0.00 | 0.00 | 61 | 1008.0 |
| 20260509210053 | 70 | 32 | 3.5 | 11.3 | 0.00 | 0.00 | 0.00 | 63 | 1007.9 |
| 20260509204551 | 71 | 13 | 7.0 | 12.2 | 0.00 | 0.00 | 0.00 | 62 | 1008.1 |
| 20260509203046 | 71 | 43 | 6.1 | 13.0 | 0.00 | 0.00 | 0.00 | 61 | 1007.9 |
| 20260509201553 | 70 | 110 | 8.7 | 13.0 | 0.00 | 0.00 | 0.00 | 61 | 1008.0 |
| 20260509200054 | 71 | 76 | 1.7 | 7.0 | 0.00 | 0.00 | 0.00 | 60 | 1008.0 |
| 20260509194543 | 71 | 14 | 5.2 | 9.6 | 0.00 | 0.00 | 0.00 | 62 | 1008.0 |
| 20260509193039 | 70 | 51 | 5.2 | 13.9 | 0.00 | 0.00 | 0.00 | 64 | 1008.1 |
| 20260509191539 | 71 | 71 | 5.2 | 12.2 | 0.00 | 0.00 | 0.00 | 62 | 1008.2 |
| 20260509190038 | 70 | 360 | 7.8 | 10.4 | 0.00 | 0.00 | 0.00 | 62 | 1008.0 |
| 20260509184534 | 69 | 38 | 4.3 | 9.6 | 0.00 | 0.00 | 0.00 | 65 | 1008.2 |
| 20260509183101 | 69 | 63 | 5.2 | 10.4 | 0.00 | 0.00 | 0.00 | 68 | 1008.1 |
| 20260509181601 | 67 | 75 | 2.6 | 7.8 | 0.00 | 0.00 | 0.00 | 67 | 1008.2 |
| 20260509180025 | 66 | 82 | 2.6 | 7.0 | 0.00 | 0.00 | 0.00 | 71 | 1008.3 |
| 20260509174522 | 63 | 46 | 3.5 | 7.8 | 0.00 | 0.00 | 0.00 | 75 | 1008.6 |
| 20260509173019 | 62 | 97 | 0.9 | 6.1 | 0.00 | 0.00 | 0.00 | 80 | 1008.8 |
| 20260509171525 | 61 | 64 | 3.5 | 7.8 | 0.00 | 0.00 | 0.00 | 76 | 1008.9 |
| 20260509170026 | 62 | 47 | 7.0 | 10.4 | 0.00 | 0.00 | 0.00 | 71 | 1008.9 |
| 20260509164516 | 62 | 45 | 4.3 | 13.0 | 0.00 | 0.00 | 0.00 | 71 | 1009.0 |
| 20260509163045 | 63 | 53 | 7.0 | 11.3 | 0.00 | 0.00 | 0.00 | 69 | 1009.0 |
| 20260509161555 | 64 | 52 | 6.1 | 13.0 | 0.00 | 0.00 | 0.00 | 68 | 1008.9 |
| 20260509160016 | 64 | 22 | 8.7 | 13.0 | 0.00 | 0.00 | 0.00 | 68 | 1008.8 |
| 20260509154518 | 64 | 14 | 4.3 | 9.6 | 0.00 | 0.00 | 0.00 | 68 | 1008.8 |
| 20260509153007 | 63 | 30 | 3.5 | 7.0 | 0.00 | 0.00 | 0.00 | 71 | 1008.6 |
| 20260509151506 | 62 | 77 | 3.5 | 7.8 | 0.00 | 0.00 | 0.00 | 69 | 1008.6 |
| 20260509150012 | 62 | 337 | 0.9 | 3.5 | 0.00 | 0.00 | 0.00 | 71 | 1008.7 |
| 20260509144501 | 61 | 337 | 0.9 | 4.3 | 0.00 | 0.00 | 0.00 | 73 | 1008.6 |
| 20260509143101 | 60 | 20 | 0.0 | 0.0 | 0.00 | 0.00 | 0.00 | 71 | 1008.5 |
| 20260509141555 | 60 | 21 | 0.0 | 1.7 | 0.00 | 0.00 | 0.00 | 69 | 1008.7 |
| 20260509134623 | 59 | 21 | 0.0 | 0.9 | 0.00 | 0.00 | 0.00 | 73 | 1008.7 |
| 20260509133049 | 58 | 21 | 0.0 | 1.7 | 0.00 | 0.00 | 0.00 | 73 | 1008.7 |
| 20260509131549 | 58 | 21 | 1.7 | 4.3 | 0.00 | 0.00 | 0.00 | 75 | 1008.6 |
| 20260509130041 | 57 | 27 | 2.6 | 4.3 | 0.00 | 0.00 | 0.00 | 80 | 1008.3 |
| 20260509124535 | 55 | 59 | 0.0 | 0.0 | 0.00 | 0.00 | 0.00 | 85 | 1008.2 |
| 20260509123032 | 54 | 55 | 0.0 | 0.0 | 0.00 | 0.00 | 0.00 | 87 | 1008.7 |
| 20260509121530 | 53 | 55 | 0.0 | 0.0 | 0.00 | 0.00 | 0.00 | 87 | 1008.8 |
| 20260509120028 | 52 | 55 | 0.0 | 0.0 | 0.00 | 0.00 | 0.00 | 88 | 1008.8 |
| 20260509114531 | 52 | 55 | 0.0 | 0.0 | 0.00 | 0.00 | 0.00 | 89 | 1008.6 |
| 20260509113027 | 51 | 55 | 0.0 | 0.0 | 0.00 | 0.00 | 0.00 | 89 | 1008.6 |
| 20260509111524 | 51 | 55 | 0.0 | 0.0 | 0.00 | 0.00 | 0.00 | 88 | 1008.4 |
| 20260509110024 | 51 | 55 | 0.0 | 0.0 | 0.00 | 0.00 | 0.00 | 88 | 1008.3 |
| 20260509104523 | 51 | 55 | 0.0 | 0.0 | 0.00 | 0.00 | 0.00 | 88 | 1008.5 |
| 20260509103023 | 51 | 55 | 0.0 | 0.0 | 0.00 | 0.00 | 0.00 | 88 | 1008.3 |
| 20260509101554 | 51 | 55 | 0.0 | 0.0 | 0.00 | 0.00 | 0.00 | 88 | 1008.2 |
| 20260509100051 | 51 | 55 | 0.0 | 0.0 | 0.00 | 0.00 | 0.00 | 88 | 1008.2 |
| 20260509094549 | 51 | 55 | 0.0 | 0.0 | 0.00 | 0.00 | 0.00 | 88 | 1008.3 |
| 20260509093052 | 51 | 55 | 0.0 | 0.0 | 0.00 | 0.00 | 0.00 | 88 | 1008.4 |
| 20260509091550 | 51 | 56 | 0.0 | 0.0 | 0.00 | 0.00 | 0.00 | 88 | 1008.4 |
| 20260509090047 | 51 | 56 | 0.0 | 0.0 | 0.00 | 0.00 | 0.00 | 88 | 1008.4 |
| 20260509084546 | 51 | 56 | 0.0 | 0.0 | 0.00 | 0.00 | 0.00 | 88 | 1008.4 |
| 20260509083047 | 51 | 55 | 0.0 | 0.0 | 0.00 | 0.00 | 0.00 | 88 | 1008.7 |
| 20260509081548 | 51 | 56 | 0.0 | 0.0 | 0.00 | 0.00 | 0.00 | 88 | 1008.7 |
| 20260509080041 | 51 | 56 | 0.0 | 0.0 | 0.00 | 0.00 | 0.00 | 87 | 1008.7 |
| 20260509074548 | 51 | 57 | 0.0 | 0.0 | 0.00 | 0.00 | 0.00 | 86 | 1008.8 |
| 20260509073037 | 51 | 58 | 0.0 | 0.0 | 0.00 | 0.00 | 0.00 | 85 | 1008.8 |
| 20260509071536 | 51 | 59 | 0.0 | 0.0 | 0.00 | 0.00 | 0.00 | 85 | 1008.8 |
| 20260509070036 | 51 | 56 | 0.0 | 0.0 | 0.00 | 0.00 | 0.00 | 85 | 1009.0 |
| 20260509064541 | 51 | 53 | 0.0 | 0.0 | 0.00 | 0.00 | 0.00 | 87 | 1008.9 |
| 20260509063037 | 51 | 53 | 0.0 | 0.0 | 0.00 | 0.00 | 0.00 | 87 | 1008.8 |
| 20260509061532 | 51 | 53 | 0.0 | 0.0 | 0.00 | 0.00 | 0.00 | 86 | 1008.8 |
| 20260509060030 | 51 | 54 | 0.0 | 0.0 | 0.00 | 0.00 | 0.00 | 85 | 1009.0 |
| 20260509054525 | 51 | 56 | 0.0 | 0.0 | 0.00 | 0.00 | 0.00 | 82 | 1009.0 |
| 20260509053025 | 52 | 56 | 0.0 | 0.0 | 0.00 | 0.00 | 0.00 | 82 | 1009.2 |
| 20260509051526 | 52 | 53 | 0.0 | 0.0 | 0.00 | 0.00 | 0.00 | 83 | 1009.2 |
| 20260509050022 | 53 | 55 | 0.0 | 0.0 | 0.00 | 0.00 | 0.00 | 81 | 1009.2 |
| 20260509044515 | 54 | 54 | 0.0 | 0.0 | 0.00 | 0.00 | 0.00 | 79 | 1009.0 |
| 20260509043013 | 54 | 55 | 0.0 | 0.0 | 0.00 | 0.00 | 0.00 | 79 | 1009.0 |
| 20260509041512 | 54 | 55 | 0.0 | 0.0 | 0.00 | 0.00 | 0.00 | 78 | 1009.2 |
| 20260509040010 | 54 | 55 | 0.0 | 1.7 | 0.00 | 0.00 | 0.00 | 78 | 1009.3 |
| 20260509034526 | 54 | 55 | 0.0 | 0.0 | 0.00 | 0.00 | 0.00 | 78 | 1009.4 |
| 20260509033010 | 54 | 56 | 0.9 | 1.7 | 0.00 | 0.00 | 0.00 | 76 | 1009.7 |
| 20260509031508 | 54 | 57 | 0.9 | 3.5 | 0.00 | 0.00 | 0.00 | 76 | 1009.9 |
| 20260509030004 | 55 | 59 | 0.0 | 0.9 | 0.00 | 0.00 | 0.00 | 75 | 1009.9 |
| 20260509024502 | 55 | 58 | 0.0 | 1.7 | 0.00 | 0.00 | 0.00 | 73 | 1010.0 |
| 20260509023003 | 56 | 60 | 0.0 | 2.6 | 0.00 | 0.00 | 0.00 | 71 | 1010.1 |
| 20260509021502 | 57 | 60 | 0.0 | 0.0 | 0.00 | 0.00 | 0.00 | 68 | 1010.3 |
| 20260509020000 | 58 | 59 | 0.0 | 0.0 | 0.00 | 0.00 | 0.00 | 65 | 1009.9 |
| 20260509014600 | 59 | 51 | 0.0 | 0.0 | 0.00 | 0.00 | 0.00 | 63 | 1009.9 |
| 20260509013059 | 60 | 44 | 0.0 | 0.0 | 0.00 | 0.00 | 0.00 | 61 | 1009.7 |
| 20260509011557 | 61 | 44 | 0.0 | 0.0 | 0.00 | 0.00 | 0.00 | 60 | 1009.6 |
| 20260509004620 | 63 | 31 | 0.0 | 3.5 | 0.00 | 0.00 | 0.00 | 54 | 1009.7 |
| 20260509003052 | 65 | 30 | 0.0 | 3.5 | 0.00 | 0.00 | 0.00 | 49 | 1009.9 |
| 20260509001554 | 68 | 29 | 0.0 | 1.7 | 0.00 | 0.00 | 0.00 | 39 | 1009.9 |
| 20260509000050 | 68 | 28 | 0.0 | 3.5 | 0.00 | 0.00 | 0.00 | 39 | 1009.8 |
| 20260508234551 | 69 | 26 | 3.5 | 7.0 | 0.00 | 0.00 | 0.00 | 38 | 1009.7 |
| 20260508233048 | 69 | 74 | 4.3 | 8.7 | 0.00 | 0.00 | 0.00 | 37 | 1009.6 |